COSMOS 2456 (730)

Last updated on Nov. 12, 2019, 4:19 a.m. UTC

1 36111U 09070A   19315.37169712  .00000107  00000-0  00000+0 0  9990
2 36111  64.2051 153.5907 0002777 348.3301 148.2332  2.13102967 77117
UTC
Height (km)
Latitude
Longitude
Inclination
Orbital Period
UTC large
Height (km)
Speed (km/s)
/
Latitude / Longitude
Inclination (degrees)
Orbital Period (minutes)
Azimuth
Elevation
Range (km)
Doppler Factor
iOS Compass Heading
iOS Angle

Next 30 passes for location: Hong Kong

Rise time Rise Azimuth (degrees) Set time Set Azimuth (degrees) Duration Max altitude (degrees)

No matching passes for this satellites